• In Deutschland
  • Länderverzeichnis
  • Für 7 Tage
  • Wassertemperatur
  • Satellitenkarten
  • Wetterkarte
  • Widgets
  • user-avatar
    Anmelden

    Stündliche Wetter Megri

    Heute, 27 Mai, Sonntag

    Zeit Temperatur Niederschläge Wind Luftdruck Luftfeuchtigkeit
    00:00 +15°C° 0,1 mm 1 m/S 624 mmHg 58%
    01:00 +15°C° 0 mm 1 m/S 624 mmHg 58%
    02:00 +14°C° 0 mm 1 m/S 624 mmHg 58%
    03:00 +14°C° 0 mm 1 m/S 624 mmHg 58%
    04:00 +15°C° 0 mm 1 m/S 625 mmHg 55%
    05:00 +16°C° 0 mm 1 m/S 625 mmHg 53%
    06:00 +18°C° 0 mm 1 m/S 626 mmHg 50%
    07:00 +19°C° 0 mm 1 m/S 627 mmHg 46%
    08:00 +20°C° 0 mm 1 m/S 627 mmHg 42%
    09:00 +20°C° 0 mm 2 m/S 628 mmHg 37%
    10:00 +21°C° 0 mm 2 m/S 628 mmHg 36%
    11:00 +23°C° 0 mm 2 m/S 628 mmHg 35%
    12:00 +24°C° 0 mm 2 m/S 629 mmHg 34%
    13:00 +24°C° 0,2 mm 3 m/S 629 mmHg 36%
    14:00 +24°C° 0,2 mm 3 m/S 628 mmHg 38%
    15:00 +23°C° 0,2 mm 4 m/S 628 mmHg 40%
    16:00 +22°C° 0,2 mm 4 m/S 628 mmHg 46%
    17:00 +20°C° 0,2 mm 4 m/S 628 mmHg 52%
    18:00 +19°C° 0,2 mm 5 m/S 627 mmHg 59%
    19:00 +18°C° 0 mm 4 m/S 627 mmHg 64%
    20:00 +15°C° 0 mm 4 m/S 627 mmHg 69%
    21:00 +14°C° 0 mm 4 m/S 627 mmHg 75%
    22:00 +13°C° 0 mm 3 m/S 627 mmHg 76%
    23:00 +13°C° 0 mm 3 m/S 627 mmHg 77%

    Morgen, 28 Mai, Montag

    Zeit Temperatur Niederschläge Wind Luftdruck Luftfeuchtigkeit
    00:00 +12°C° 0 mm 3 m/S 627 mmHg 78%
    01:00 +13°C° 0 mm 2 m/S 627 mmHg 79%
    02:00 +13°C° 0 mm 2 m/S 626 mmHg 80%
    03:00 +12°C° 0 mm 2 m/S 626 mmHg 81%
    04:00 +13°C° 0 mm 2 m/S 626 mmHg 77%
    05:00 +14°C° 0 mm 2 m/S 626 mmHg 73%
    06:00 +14°C° 0 mm 1 m/S 627 mmHg 69%
    07:00 +16°C° 0 mm 1 m/S 627 mmHg 61%
    08:00 +19°C° 0 mm 1 m/S 627 mmHg 53%
    09:00 +21°C° 0 mm 1 m/S 628 mmHg 45%
    10:00 +22°C° 0 mm 1 m/S 628 mmHg 40%
    11:00 +24°C° 0 mm 1 m/S 628 mmHg 36%
    12:00 +25°C° 0 mm 1 m/S 628 mmHg 32%
    13:00 +25°C° 0 mm 1 m/S 628 mmHg 31%
    14:00 +26°C° 0 mm 1 m/S 627 mmHg 30%
    15:00 +26°C° 0 mm 1 m/S 627 mmHg 28%
    16:00 +26°C° 0 mm 1 m/S 627 mmHg 31%
    17:00 +25°C° 0 mm 2 m/S 626 mmHg 34%
    18:00 +24°C° 0 mm 2 m/S 626 mmHg 36%
    19:00 +23°C° 0 mm 2 m/S 625 mmHg 43%
    20:00 +20°C° 0 mm 2 m/S 625 mmHg 50%
    21:00 +18°C° 0 mm 2 m/S 625 mmHg 57%
    22:00 +18°C° 0 mm 2 m/S 624 mmHg 60%
    23:00 +17°C° 0 mm 2 m/S 624 mmHg 63%

    übermorgen, 29 Mai, Dienstag

    Zeit Temperatur Niederschläge Wind Luftdruck Luftfeuchtigkeit
    00:00 +16°C° 0 mm 2 m/S 624 mmHg 66%
    01:00 +16°C° 0 mm 2 m/S 624 mmHg 65%
    02:00 +16°C° 0 mm 2 m/S 624 mmHg 63%
    03:00 +16°C° 0 mm 3 m/S 624 mmHg 62%
    04:00 +16°C° 0,1 mm 3 m/S 624 mmHg 61%
    05:00 +16°C° 0,1 mm 3 m/S 624 mmHg 59%
    06:00 +16°C° 0,1 mm 3 m/S 624 mmHg 58%
    07:00 +18°C° 0 mm 3 m/S 624 mmHg 53%
    08:00 +19°C° 0 mm 3 m/S 624 mmHg 48%
    09:00 +21°C° 0 mm 4 m/S 625 mmHg 43%
    10:00 +22°C° 0 mm 4 m/S 625 mmHg 41%
    11:00 +23°C° 0 mm 4 m/S 625 mmHg 39%
    12:00 +25°C° 0 mm 4 m/S 625 mmHg 38%
    13:00 +22°C° 0,8 mm 4 m/S 625 mmHg 43%
    14:00 +21°C° 0,8 mm 3 m/S 624 mmHg 49%
    15:00 +20°C° 0,8 mm 3 m/S 623 mmHg 54%
    16:00 +19°C° 0,2 mm 4 m/S 623 mmHg 57%
    17:00 +19°C° 0,2 mm 4 m/S 623 mmHg 60%
    18:00 +17°C° 0,2 mm 5 m/S 623 mmHg 63%
    19:00 +16°C° 0,1 mm 5 m/S 623 mmHg 67%
    20:00 +14°C° 0,1 mm 5 m/S 623 mmHg 71%
    21:00 +13°C° 0,1 mm 4 m/S 623 mmHg 75%
    22:00 +13°C° 0,1 mm 4 m/S 623 mmHg 77%
    23:00 +12°C° 0,1 mm 4 m/S 623 mmHg 78%

    30 Mai, Mittwoch

    Zeit Temperatur Niederschläge Wind Luftdruck Luftfeuchtigkeit
    00:00 +12°C° 0,1 mm 3 m/S 623 mmHg 79%
    01:00 +11°C° 0 mm 3 m/S 623 mmHg 79%
    02:00 +11°C° 0 mm 3 m/S 623 mmHg 80%
    03:00 +11°C° 0 mm 3 m/S 622 mmHg 80%
    04:00 +11°C° 0 mm 3 m/S 623 mmHg 79%
    05:00 +11°C° 0 mm 3 m/S 623 mmHg 78%
    06:00 +12°C° 0 mm 3 m/S 623 mmHg 76%
    07:00 +13°C° 0 mm 3 m/S 623 mmHg 71%
    08:00 +14°C° 0 mm 3 m/S 624 mmHg 65%
    09:00 +17°C° 0 mm 3 m/S 625 mmHg 59%
    10:00 +18°C° 0 mm 3 m/S 625 mmHg 54%
    11:00 +20°C° 0 mm 3 m/S 625 mmHg 49%
    12:00 +21°C° 0 mm 3 m/S 625 mmHg 45%
    13:00 +22°C° 0 mm 3 m/S 625 mmHg 43%
    14:00 +22°C° 0 mm 3 m/S 625 mmHg 41%
    15:00 +24°C° 0 mm 3 m/S 625 mmHg 38%
    16:00 +22°C° 0,2 mm 3 m/S 624 mmHg 42%
    17:00 +21°C° 0,2 mm 3 m/S 624 mmHg 45%
    18:00 +21°C° 0,2 mm 4 m/S 624 mmHg 48%
    19:00 +19°C° 0,3 mm 3 m/S 623 mmHg 56%
    20:00 +17°C° 0,3 mm 3 m/S 622 mmHg 64%
    21:00 +14°C° 0,3 mm 3 m/S 622 mmHg 72%
    22:00 +14°C° 0,7 mm 3 m/S 622 mmHg 72%
    23:00 +14°C° 0,7 mm 3 m/S 621 mmHg 72%

    31 Mai, Donnerstag

    Zeit Temperatur Niederschläge Wind Luftdruck Luftfeuchtigkeit
    00:00 +14°C° 0,7 mm 3 m/S 621 mmHg 72%
    01:00 +14°C° 0,2 mm 3 m/S 621 mmHg 72%
    02:00 +14°C° 0,2 mm 2 m/S 620 mmHg 73%
    03:00 +14°C° 0,2 mm 2 m/S 620 mmHg 73%
    04:00 +15°C° 0 mm 2 m/S 620 mmHg 71%
    05:00 +16°C° 0 mm 2 m/S 620 mmHg 69%
    06:00 +16°C° 0 mm 2 m/S 621 mmHg 66%
    07:00 +19°C° 0 mm 2 m/S 621 mmHg 57%
    08:00 +21°C° 0 mm 2 m/S 622 mmHg 49%
    09:00 +24°C° 0 mm 3 m/S 623 mmHg 40%
    10:00 +25°C° 0 mm 4 m/S 623 mmHg 35%
    11:00 +27°C° 0 mm 5 m/S 623 mmHg 31%
    12:00 +28°C° 0 mm 7 m/S 623 mmHg 26%
    13:00 +28°C° 0 mm 7 m/S 623 mmHg 25%
    14:00 +29°C° 0 mm 7 m/S 622 mmHg 24%
    15:00 +29°C° 0 mm 8 m/S 622 mmHg 23%
    16:00 +28°C° 0,1 mm 7 m/S 622 mmHg 25%
    17:00 +27°C° 0,1 mm 7 m/S 622 mmHg 27%
    18:00 +26°C° 0,1 mm 7 m/S 621 mmHg 29%
    19:00 +23°C° 0,1 mm 6 m/S 621 mmHg 32%
    20:00 +21°C° 0,1 mm 5 m/S 621 mmHg 35%
    21:00 +19°C° 0,1 mm 4 m/S 621 mmHg 38%
    22:00 +19°C° 0 mm 3 m/S 621 mmHg 40%
    23:00 +18°C° 0 mm 3 m/S 621 mmHg 42%

    1 Juni, Freitag

    Zeit Temperatur Niederschläge Wind Luftdruck Luftfeuchtigkeit
    00:00 +17°C° 0 mm 2 m/S 621 mmHg 45%
    01:00 +17°C° 0 mm 2 m/S 620 mmHg 46%
    02:00 +16°C° 0 mm 2 m/S 620 mmHg 47%
    03:00 +16°C° 0 mm 2 m/S 620 mmHg 48%
    04:00 +16°C° 0 mm 2 m/S 620 mmHg 48%
    05:00 +17°C° 0 mm 2 m/S 621 mmHg 48%
    06:00 +18°C° 0 mm 2 m/S 621 mmHg 47%
    07:00 +19°C° 0 mm 3 m/S 621 mmHg 42%
    08:00 +21°C° 0 mm 3 m/S 622 mmHg 37%
    09:00 +22°C° 0 mm 4 m/S 622 mmHg 32%
    10:00 +23°C° 0 mm 5 m/S 622 mmHg 30%
    11:00 +24°C° 0 mm 6 m/S 622 mmHg 28%
    12:00 +26°C° 0 mm 6 m/S 622 mmHg 25%
    13:00 +27°C° 0 mm 6 m/S 622 mmHg 24%
    14:00 +27°C° 0 mm 6 m/S 622 mmHg 23%
    15:00 +28°C° 0 mm 6 m/S 622 mmHg 22%
    16:00 +27°C° 0 mm 6 m/S 621 mmHg 22%
    17:00 +26°C° 0 mm 5 m/S 621 mmHg 23%
    18:00 +26°C° 0 mm 4 m/S 621 mmHg 24%
    19:00 +23°C° 0 mm 4 m/S 621 mmHg 28%
    20:00 +21°C° 0 mm 3 m/S 620 mmHg 32%
    21:00 +19°C° 0 mm 2 m/S 620 mmHg 36%
    22:00 +18°C° 0 mm 2 m/S 620 mmHg 39%
    23:00 +17°C° 0 mm 2 m/S 620 mmHg 41%
    Mehr zeigen